METAR Formatted Surface Weather Observation
Issued by NWS

Home | Current Version | Previous Version | Text Only | Print | Product List | Glossary On
Versions: 1 2 3 4 5 6 7 8 9 10 11 12 13 14 15 16 17 18 19 20 21 22 23 24 25 26 27 28 29 30 31 32 33
269
SAUS42 KJAX 120357
MTRNPA
METAR KNPA 120356Z AUTO 24009KT 10SM CLR 17/14 A3019 RMK AO2 SLP224
T01670144 $



USA.gov is the U.S. government's official web portal to all federal, state and local government web resources and services.